EHI
0 0 0 0 0 0 0 0 0 0 0 0 0 0 0 0 0 0 0 0 0 0 0 0 0 0 0 0 0 0 0 0 0 0 0 0 0 0
0 0 0 0 0 0 0 0 0 0 0 0 0 0 0 0 0 0 0 0 0 0 0 0 0 0 0 0 0 0 0 0 0 0 0 0 0 0
0 0 0 0 0 0 0 0 0 0 0 0 0 0 0 0 0 0 0 0 0 0 0 0 0 0 0 0 0 0 0 0 0 0 0 0 0 0
0 0 0 0 0 0 0 0 0 0 0 0 0 0 0 0 0 0 0 0 0 0 0 0 0 0 0 0 0 0 0 0 0 0 0 0 0 0
0 0 0 0 0 0 0 0 0 0 0 0 0 0 0 0 0 0 0 0 0 0 0 0 0 0 0 0 0 0 0 0 0 0 0 0 0 0
0 0 0 0 0 0 0 0 0 0 0 0 0 0 0 0 0 0 0 0 0 0 0 0 0 0 0 0 0 0 0 0 0 0 0 0 0 0
0 0 0 0 0 0 0 0 0 0 0 0 0 0 0 0 0 0 0 0 0 0 0 0 0 0 0 0 0 0 0 0 0 0 0 0 0 0
0 0 0 0 0 0 0 0 0 0 0 0 0 0 0 0 0 0 0 0 0 0 0 0 0 0 0 0 0 0 0 0 0 0 0 0 0 0
0 0 0 0 0 0 0 0 0 0 0 0 0 0 0 0 0 0 0 0 0 0 0 0 0 0 0 0 0 0 0 0 0 0 0 0 0 0
0 0 0 0 0 0 0 0 0 0 0 0 0 0 0 0 0 0 0 0 0 0 0 0 0 0 0 0 0 0 0 0 0 0 0 0 0 0
0 0 0 0 0 0 0 0 0 0 0 0 0 0 0 0 0 0 0 0 0 0 0 0 0 0 0 0 0 0 0 0 0 0 0 0 0 0
0 0 0 0 0 0 0 0 0 0 0 0 0 0 0 0 0 0 0 0 0 0 0 0 0 0 0 0 0 0 0 0 0 0 0 0 0 0
0 0 0 0 0 0 0 0 0 0 0 0 0 0 0 0 0 0 0 0 0 0 0 0 0 0 0 0 0 0 0 0 0 0 0 0 0 0
0 0 0 0 0 0 0 0 0 0 0 0 0 0 0 0 0 0 0 0 0 0 0 0 0 0 0 0 0 0 0 0 0 0 0 0 0 0
0 0 0 0 0 0 0 0 0 0 0 0 0 0 0 0 0 0 0 0 0 0 0 0 0 0 0 0 0 0 0 0 0 0 0 0 0 0
0 0 0 0 0 0 0 0 0 0 0 0 0 0 0 0 0 0 0 0 0 0 0 0 0 0 0 0 0 0 0 0 0 0 0 0 0 0
0 0 0 0 0 0 0 0 0 0 0 0 0 0 0 0 0 0 0 0 0 0 0 0 0 0 0 0 0 0 0 0 0 0 0 0 0 0
0 0 0 0 0 0 0 0 0 0 0 0 0 0 0 0 0 0 0 0 0 0 0 0 0 0 0 0 0 0 0 0 0 0 0 0 0 0
0 0 0 0 0 0 0 0 0 0 0 0 0 0 0 0 0 0 0 0 0 0 0 0 0 0 0 0 0 0 0 0 0 0 0 0 0 0
0 0 0 0 0 0 0 0 0 0 0 0 0 0 0 0 0 0 0 0 0 0 0 0 0 0 0 0 0 0 0 0 0 0 0 0 0 0
0 0 0 0 0 0 0 0 0 0 0 0 0 0 0 0 0 0 0 0 0 0 0 0 0 0 0 0 0 0 0 0 0 0 0 0 0 0
0 0 0 0 0 0 0 0 0 0 0 0 0 0 0 0 0 0 0 0 0 0 0 0 0 0 0 0 0 0 0 0 0 0 0 0 0 0
0 0 0 0 0 0 0 0 0 0 0 0 0 0 0 0 0 0 0 0 0 0 0 0 0 0 0 0 0 0 0 0 0 0 0 0 0 0
Wind_Speed
5 5 4 4 3 3 3 3 3 3 3 2 2 2 3 3 6 7 8 12 14 14 14 14 14 14 14 14 13 13 12 12 12 12 11 11 12 13
4 5 5 4 4 3 3 3 4 3 3 2 2 2 2 3 5 6 7 10 13 13 13 13 13 13 13 12 12 11 11 11 10 10 10 9 9 9
6 6 7 6 4 4 3 3 3 3 4 3 2 1 1 2 3 3 4 6 6 11 12 12 12 12 12 11 10 10 9 8 8 8 8 8 8 8
8 7 8 6 6 5 4 4 4 4 4 4 3 1 1 3 3 4 4 4 5 9 12 12 12 12 11 11 10 9 9 8 7 6 6 6 6 6
8 8 8 7 7 6 6 5 4 4 3 3 3 2 1 3 4 3 4 4 5 7 10 11 12 12 11 10 10 9 8 8 7 6 6 5 5 5
8 8 9 9 9 8 7 6 5 4 4 3 3 3 2 3 4 4 4 4 4 5 6 7 10 11 10 10 10 9 9 8 7 6 6 5 4 4
8 8 9 11 12 9 7 6 6 5 4 4 3 3 3 4 4 4 5 5 4 4 6 5 6 6 6 8 8 9 8 8 7 6 6 5 5 4
8 8 8 10 12 13 13 11 10 8 7 5 4 5 5 4 3 4 5 6 4 4 5 4 4 5 4 4 6 8 8 8 7 7 6 6 5 4
8 8 7 7 9 8 10 12 12 13 11 7 6 7 5 5 5 7 6 6 4 7 6 5 4 4 4 4 8 8 8 8 8 8 7 7 7 6
8 9 8 8 8 8 8 8 8 9 10 8 7 7 6 5 6 5 5 4 4 5 5 5 4 4 4 4 7 8 8 9 9 9 9 9 9 9
8 8 8 8 9 10 8 8 8 7 8 10 9 8 8 9 7 5 6 6 5 4 3 4 5 4 3 3 4 8 8 9 10 10 10 10 10 9
6 6 10 10 10 10 9 9 8 7 6 6 6 7 7 7 9 7 6 6 5 4 5 5 6 5 4 3 3 4 6 7 9 10 10 10 9 6
5 5 5 9 11 11 10 8 9 7 6 6 5 5 4 5 5 5 5 5 5 3 7 6 6 5 5 5 3 3 4 4 5 6 8 8 7 6
5 5 5 8 10 10 9 9 10 8 4 5 5 5 5 5 5 5 5 4 3 3 8 8 6 7 7 6 5 5 4 4 5 5 5 7 8 8
5 7 7 9 8 7 10 11 9 6 6 6 6 6 5 5 5 4 5 4 3 4 7 6 7 8 6 6 7 6 5 5 5 6 6 5 5 5
4 5 6 7 6 5 5 6 6 6 6 6 6 5 4 4 5 4 4 5 4 3 5 6 8 10 6 6 7 7 7 7 7 6 6 5 4 4
3 2 2 2 3 4 4 4 5 6 6 5 5 5 5 5 4 4 4 5 4 5 5 4 4 4 5 7 7 7 8 6 7 8 6 5 4 4
3 3 3 4 4 5 5 5 5 6 6 6 6 6 6 6 5 5 4 5 5 5 6 6 7 5 3 2 3 8 7 7 7 8 6 6 6 5
3 4 4 4 4 4 5 5 5 6 6 6 6 6 6 6 6 6 6 5 5 6 6 7 7 7 7 5 4 5 8 8 8 7 6 5 5 6
3 4 4 4 4 4 4 5 5 5 5 6 6 6 6 6 6 6 6 7 6 6 6 7 8 8 7 7 6 5 9 9 8 8 6 4 4 5
3 4 4 4 4 4 4 5 5 5 6 6 6 7 7 7 6 7 7 8 6 6 7 8 7 8 5 6 6 5 6 7 8 7 8 7 5 5
3 4 4 4 4 4 4 5 5 6 7 7 6 7 7 7 7 8 7 7 7 6 7 6 8 8 6 7 7 7 7 6 6 8 8 5 6 8
3 3 3 3 4 4 4 5 6 6 6 7 7 7 7 7 7 7 8 7 7 7 7 7 7 6 6 6 7 7 10 9 7 7 4 2 3 4
Wind_Direction
235 233 232 240 241 238 239 234 247 269 277 262 239 227 218 207 200 201 202 194 189 188 189 188 189 190 190 193 196 199 202 206 209 210 213 218 221 222
238 236 236 236 241 238 236 241 238 244 264 273 252 248 226 215 193 195 197 183 182 181 181 181 180 182 182 184 188 190 193 198 199 202 207 211 216 219
246 239 242 236 231 234 230 234 236 235 256 276 256 244 199 182 176 176 173 172 172 172 171 170 169 169 170 171 174 175 178 182 187 191 196 201 208 215
247 243 246 241 232 229 224 229 232 231 240 266 264 234 197 171 161 161 159 152 153 160 159 159 157 157 159 162 163 163 165 168 172 177 183 192 203 209
244 241 243 238 237 231 224 222 226 232 228 253 260 226 202 162 148 145 140 128 132 143 143 144 145 147 150 153 155 156 158 163 167 171 176 183 194 205
244 240 240 234 234 231 227 221 219 223 224 239 248 225 205 165 154 155 150 141 132 132 125 125 130 131 136 142 147 150 154 159 163 165 169 174 185 199
245 240 239 238 235 228 225 217 212 214 214 223 231 218 202 176 172 164 159 143 126 135 131 130 130 128 128 133 137 142 148 154 158 160 162 165 172 180
249 248 246 248 244 235 229 219 208 206 209 211 218 215 210 193 171 168 158 158 160 158 143 134 134 130 129 134 137 140 144 147 151 151 151 149 147 147
247 246 247 243 234 234 231 226 220 215 205 203 212 213 204 196 183 180 181 178 163 158 146 137 134 128 122 121 133 138 140 139 137 138 137 133 128 124
247 243 240 243 238 229 228 228 225 223 217 213 214 213 206 195 189 185 173 155 122 146 149 136 139 131 121 121 134 137 138 135 132 129 126 121 115 108
251 245 238 239 233 224 221 220 223 228 225 218 215 210 196 188 177 165 165 169 160 160 151 131 134 124 122 126 129 135 136 134 130 127 124 122 118 109
257 249 242 238 232 222 219 214 214 218 210 206 213 212 200 190 181 182 180 179 161 160 158 139 142 142 139 132 139 143 134 128 125 124 126 127 128 119
256 253 245 235 232 225 218 217 216 206 199 194 192 194 190 187 189 189 185 188 177 163 160 147 148 150 142 140 146 148 142 139 132 123 121 122 124 126
250 251 248 239 232 227 220 217 210 200 192 185 184 190 193 194 190 187 186 186 188 171 164 155 150 160 148 145 151 150 144 146 143 136 132 122 106 96
250 251 248 240 233 228 221 211 202 198 190 190 193 198 199 190 174 174 172 167 156 163 164 167 153 155 152 148 149 155 154 159 158 148 146 147 144 141
256 254 247 239 227 219 210 203 200 196 194 196 195 189 172 171 175 173 169 164 161 163 167 167 163 160 152 147 150 158 161 160 163 158 147 144 147 153
257 244 226 217 215 209 200 193 191 191 197 194 183 173 170 174 175 171 167 163 171 173 166 154 150 142 139 147 151 159 156 154 160 157 155 152 160 165
229 230 227 217 214 211 205 197 192 193 193 189 184 179 175 176 173 170 173 174 177 178 171 158 151 135 114 82 139 157 157 154 156 160 158 158 164 170
222 232 230 224 218 209 204 199 196 193 187 188 184 182 175 174 174 177 179 182 182 178 174 167 167 165 168 168 161 165 158 152 153 160 169 167 167 167
228 232 232 226 220 212 207 203 194 184 184 187 185 182 179 176 178 180 184 185 181 174 173 175 181 180 180 166 153 163 165 156 158 162 160 141 111 116
244 238 233 227 221 215 208 203 197 191 190 188 189 186 183 180 183 186 186 182 176 175 182 186 185 160 125 124 130 141 159 165 159 158 155 150 146 154
259 250 242 233 226 218 205 199 200 199 195 194 192 188 186 185 187 188 186 182 181 181 184 171 154 154 159 167 160 149 144 147 136 130 139 147 162 175
258 258 254 243 232 219 208 204 205 202 197 195 192 188 185 187 190 189 186 185 182 178 169 161 161 168 174 168 156 147 149 153 150 146 138 62 117 125